Location: Smithsonian NASM Public Observatory
(38.8879°N, 77.0185°W)
Time: 14:20:26
(UTC-04:00)

Daily predictions for brighter satellites

Satellite Brightness Start Highest point End
(mag) Time Altitude Azimuth Time Altitude Azimuth Time Altitude Azimuth
Cosmos 1726 Rocket 3.8 19:20:08 10° SSE 19:24:19 47° E 19:28:30 10° NNE
SPOT 3 Rocket 3.7 19:24:00 10° SSE 19:29:09 84° WSW 19:34:21 10° NNW
Cosmos 1709 Rocket 4.1 19:24:26 10° S 19:30:46 81° E 19:37:10 10° N
Cosmos 1378 3.5 19:33:49 10° N 19:37:27 42° E 19:41:02 10° SSE
Cosmos 1271 Rocket 3.1 19:34:11 10° SSW 19:37:55 66° W 19:41:43 10° N
Cosmos 2084 3.2 19:34:08 10° SSW 19:38:15 73° ESE 19:42:10 10° NE
Cosmos 1898 Rocket 3.5 19:33:08 10° NNW 19:38:20 87° WSW 19:43:30 10° SSE
ATLAS CENTAUR R/B 4.0 19:23:15 10° NW 19:39:10 58° NNE 19:44:25 10° ESE
Cosmos 1814 Rocket 3.9 19:34:06 10° SSW 19:39:16 80° ESE 19:44:25 10° NNE
USA 234 4.1 19:34:31 10° SSE 19:40:52 52° SW 19:47:15 10° NW
Cosmos 990 Rocket 3.9 19:39:29 10° NNW 19:44:39 67° ENE 19:49:45 10° SSE
Cosmos 1340 Rocket 2.9 19:43:22 10° N 19:47:27 87° WSW 19:51:32 10° S
Cosmos 482 Debris 3.8 19:44:45 10° NW 19:48:58 75° SW 19:51:22 11° SE
Milstar 3 Cent rocket 3.8 19:47:27 10° SSW 19:50:45 16° SSE 19:53:41 10° SE
Resurs 01 Rocket 2.9 19:50:31 12° ESE 19:53:24 22° ENE 19:56:48 10° NNE
Cosmos 2228 3.0 19:49:15 10° S 19:53:34 68° E 19:57:54 10° NNE
Envisat 4.2 19:54:45 14° ESE 19:57:41 22° ENE 20:01:34 10° NNE
Geosat 4.0 19:53:14 10° SSE 19:58:16 89° ENE 20:03:20 10° NNW
USA 81 4.0 19:53:23 10° N 19:58:42 77° E 20:03:58 10° S
GP-B 4.3 19:55:55 10° NE 19:59:16 21° E 20:01:09 16° ESE
Cosmos 2184 Rocket 4.1 19:53:17 10° SSE 19:59:23 54° E 20:05:33 10° NNE
CZ-2D R/B 4.2 19:57:36 14° ESE 20:00:07 28° ENE 20:03:24 10° NNE
Cosmos 2150 Rocket 4.2 19:57:13 10° NNW 20:02:35 83° WSW 20:07:59 10° SSE
ISS -1.9 20:02:02 10° SSE 20:03:32 15° SE 20:03:32 15° SE
Cosmos 304 Rocket 3.7 20:01:13 10° SSW 20:05:59 82° ESE 20:10:48 10° NNE
Cosmos 1953 Rocket 4.1 20:02:47 10° NNW 20:07:03 59° W 20:11:17 10° S
Cosmos 2058 Rocket 3.2 20:02:55 10° SSW 20:07:15 76° W 20:11:39 10° N
Meteor 1-24 Rocket 3.8 20:04:56 10° N 20:10:51 59° ENE 20:16:32 10° SSE
Cosmos 1943 Rocket 3.4 20:08:47 10° NW 20:14:01 43° WSW 20:19:16 10° S
ORS 1 (USA 231) 4.4 20:11:33 10° W 20:14:30 75° N 20:15:28 38° E
Cosmos 841 Rocket 3.7 20:11:39 10° SSW 20:16:46 73° WNW 20:21:55 10° NNE
SJ-6B 2.8 20:13:20 10° SSE 20:17:22 90° NE 20:21:20 10° NNW
Cosmos 1356 Rocket 3.4 20:13:54 10° N 20:18:13 80° E 20:22:31 10° SSE
Cosmos 1953 4.5 20:22:47 13° NE 20:22:47 13° NE 20:23:23 10° NE
Cosmos 2327 Rocket 4.3 20:14:43 10° S 20:20:49 74° E 20:26:54 10° N
Cosmos 1937 Rocket 4.5 20:16:03 10° NNW 20:21:09 49° WSW 20:26:11 10° S
NOSS 3-1 (A) 4.1 20:14:01 10° NNW 20:21:40 68° NE 20:28:17 18° SE
ALOS 3.8 20:19:25 10° SSW 20:23:43 37° W 20:28:04 10° NNW
NOSS 3-1 (C) 4.1 20:23:08 10° NW 20:30:53 85° WSW 20:38:46 13° SSE
HJ-1C 4.1 20:31:03 10° S 20:34:19 52° W 20:37:37 10° NNW
H-2A R/B 3.9 20:32:41 10° S 20:36:12 42° W 20:39:47 10° NNW
Cosmos 540 Rocket 3.3 20:32:21 10° SSW 20:37:26 86° ESE 20:42:35 10° NNE
Cosmos 1656 Rocket 4.5 20:45:03 10° NNW 20:50:28 50° WSW 20:55:47 10° S
MOS 1-B Rocket 3.8 20:46:10 21° SSE 20:50:32 74° ENE 20:56:14 10° N
COSMOS 2406 3.8 20:50:16 10° SW 20:55:52 59° WNW 21:01:34 10° NNE
BREEZE M DEB (TANK) 2.8 20:55:22 10° WNW 21:00:22 66° WSW 21:00:22 66° WSW
Cosmos 1758 4.1 21:04:38 42° N 21:04:38 42° N 21:07:23 10° N
Spot 2 Rocket 3.5 21:01:55 36° S 21:04:01 79° WSW 21:09:05 10° NNW
Cosmos 2154 Rocket 4.0 20:58:13 10° S 21:04:25 85° W 21:10:43 10° N
Meteor 1-21 Rocket 4.1 21:02:01 10° N 21:07:44 65° E 21:08:07 63° ESE
Resurs 1-3 4.0 21:06:53 40° SSW 21:08:14 59° W 21:12:35 10° NNW
Cosmos 2369 4.5 21:07:28 10° N 21:11:53 36° NE 21:11:53 36° NE
Cosmos 1939 Rocket 4.1 21:16:00 34° N 21:16:00 34° N 21:18:20 10° N
Cosmos 2341 Rocket 3.8 21:10:05 17° S 21:14:57 83° E 21:21:13 10° N
Cosmos 1674 4.5 21:12:40 10° N 21:14:20 25° N 21:14:20 25° N
Resurs 01 Rocket 3.2 21:28:06 25° SW 21:29:41 32° W 21:33:39 10° NNW
Cosmos 1125 Rocket 4.5 21:25:58 10° NNW 21:30:58 43° WSW 21:32:25 35° SW
GEOS 3 Rocket 3.7 21:34:02 73° WSW 21:34:02 73° WSW 21:38:55 10° SW
FALCON 9 R/B 2.8 21:31:33 10° W 21:34:48 51° SSW 21:34:48 51° SSW
Envisat 4.1 21:34:58 33° SW 21:36:25 41° W 21:41:13 10° NNW
Cosmos 2285 Rocket 4.4 21:46:04 52° NNE 21:46:04 52° NNE 21:50:49 10° NNE
H-2A R/B 4.3 21:49:43 14° NNE 21:49:43 14° NNE 21:50:31 10° N
Cosmos 2278 4.5 21:42:13 10° NNW 21:46:08 45° N 21:46:08 45° N
ATLAS 2AS CENTAUR R/B 3.2 21:55:56 10° NNW 22:02:57 59° NNE 22:02:57 59° NNE
Cosmos 1697 Rocket 4.3 22:07:10 10° NNW 22:09:50 28° N 22:09:50 28° N
Cosmos 1980 Rocket 4.2 22:08:29 10° N 22:10:25 20° N 22:10:25 20° N
